Location: Newark
(34.9500°N, 139.9667°E)
Time: 11:25:37
(UTC+00:00)

Transit 2A - Pass Details

Date: 11 December 2019
Orbit: 601 x 958 km, 66.7° (Epoch: 24 January)

Event Time Altitude Azimuth Distance (km) Brightness Sun altitude
Rises 19:33:39 0° 161° (SSE) 3,178 9.6 -24.7°
Reaches altitude 10° 19:37:19 10° 135° (SE) 2,176 9.1 -24.0°
Maximum altitude 19:39:37 13° 107° (ESE) 1,912 9.1 -23.5°
Drops below altitude 10° 19:41:50 10° 79° (ENE) 2,088 9.2 -23.1°
Sets 19:45:11 0° 52° (NE) 2,944 9.6 -22.4°
